Time,TemperatureF,DewpointF,PressureIn,WindDirection,WindDirectionDegrees,WindSpeedMPH,WindSpeedGustMPH,Humidity,HourlyPrecipIn,Conditions,Clouds,dailyrainin,SolarRadiationWatts/m^2,SoftwareType,DateUTC
2013-01-28 00:01:00,35.0,32.0,-100.00,SW,222,6.0,17.0,90,0.00,,,0.12,0.000000,,2013-01-28 08:01:00,
2013-01-28 00:11:00,35.0,32.0,-100.00,SW,222,6.0,17.0,90,0.00,,,0.12,0.000000,,2013-01-28 08:11:00,
2013-01-28 00:42:00,35.0,33.0,-100.00,SSW,197,7.0,22.0,92,0.01,,,0.11,0.000000,,2013-01-28 08:42:00,
2013-01-28 00:52:00,35.0,33.0,-100.00,SSW,197,7.0,22.0,92,0.01,,,0.11,0.000000,,2013-01-28 08:52:00,
2013-01-28 01:01:00,35.0,33.0,-100.00,SSW,197,7.0,22.0,92,0.01,,,0.11,0.000000,,2013-01-28 09:01:00,
2013-01-28 01:11:00,35.0,33.0,-100.00,SSW,197,7.0,22.0,92,0.01,,,0.11,0.000000,,2013-01-28 09:11:00,
2013-01-28 01:32:00,37.0,35.0,-100.00,South,184,5.0,14.0,93,0.00,,,0.10,0.000000,,2013-01-28 09:32:00,
2013-01-28 01:42:00,37.0,35.0,-100.00,South,184,5.0,14.0,93,0.00,,,0.10,0.000000,,2013-01-28 09:42:00,
2013-01-28 01:52:00,37.0,35.0,-100.00,South,184,5.0,14.0,93,0.00,,,0.10,0.000000,,2013-01-28 09:52:00,
2013-01-28 02:01:00,37.0,35.0,-100.00,South,184,5.0,14.0,93,0.00,,,0.10,0.000000,,2013-01-28 10:01:00,
2013-01-28 02:11:00,37.0,35.0,-100.00,South,184,5.0,14.0,93,0.00,,,0.10,0.000000,,2013-01-28 10:11:00,
2013-01-28 02:42:00,35.0,33.0,-100.00,South,184,4.0,15.0,93,0.04,,,-99.99,0.000000,,2013-01-28 10:42:00,
2013-01-28 02:52:00,35.0,33.0,-100.00,South,184,4.0,15.0,93,0.04,,,-99.99,0.000000,,2013-01-28 10:52:00,
2013-01-28 03:02:00,35.0,33.0,-100.00,South,184,4.0,15.0,93,0.04,,,-99.99,0.000000,,2013-01-28 11:02:00,
2013-01-28 03:11:00,35.0,33.0,-100.00,South,184,4.0,15.0,93,0.04,,,-99.99,0.000000,,2013-01-28 11:11:00,
2013-01-28 03:32:00,35.0,33.0,-100.00,SSW,210,8.0,18.0,93,0.02,,,0.10,0.000000,,2013-01-28 11:32:00,
2013-01-28 03:42:00,35.0,33.0,-100.00,SSW,210,8.0,18.0,93,0.02,,,0.10,0.000000,,2013-01-28 11:42:00,
2013-01-28 03:52:00,35.0,33.0,-100.00,SSW,210,8.0,18.0,93,0.02,,,0.10,0.000000,,2013-01-28 11:52:00,
2013-01-28 04:03:00,35.0,33.0,-100.00,SSW,210,8.0,18.0,93,0.02,,,0.10,0.000000,,2013-01-28 12:03:00,
2013-01-28 04:11:00,35.0,33.0,-100.00,SSW,210,8.0,18.0,93,0.02,,,0.10,0.000000,,2013-01-28 12:11:00,
2013-01-28 04:33:00,35.0,33.0,-100.00,SSW,198,5.0,19.0,93,0.00,,,0.09,0.000000,,2013-01-28 12:33:00,
2013-01-28 04:42:00,35.0,33.0,-100.00,SSW,198,5.0,19.0,93,0.00,,,0.09,0.000000,,2013-01-28 12:42:00,
2013-01-28 04:52:00,35.0,33.0,-100.00,SSW,198,5.0,19.0,93,0.00,,,0.09,0.000000,,2013-01-28 12:52:00,
2013-01-28 05:02:00,35.0,33.0,-100.00,SSW,198,5.0,19.0,93,0.00,,,0.09,0.000000,,2013-01-28 13:02:00,
2013-01-28 05:11:00,35.0,33.0,-100.00,SSW,198,5.0,19.0,93,0.00,,,0.09,0.000000,,2013-01-28 13:11:00,
2013-01-28 05:33:00,36.0,34.0,-100.00,SW,230,13.0,26.0,92,0.00,,,0.09,0.000000,,2013-01-28 13:33:00,
2013-01-28 05:42:00,36.0,34.0,-100.00,SW,230,13.0,26.0,92,0.00,,,0.09,0.000000,,2013-01-28 13:42:00,
2013-01-28 05:53:00,36.0,34.0,-100.00,SW,230,13.0,26.0,92,0.00,,,0.09,0.000000,,2013-01-28 13:53:00,
2013-01-28 06:02:00,36.0,34.0,-100.00,SW,230,13.0,26.0,92,0.00,,,0.09,0.000000,,2013-01-28 14:02:00,
2013-01-28 06:11:00,36.0,34.0,-100.00,SW,230,13.0,26.0,92,0.00,,,0.09,0.000000,,2013-01-28 14:11:00,
2013-01-28 06:43:00,36.0,34.0,-100.00,WSW,240,8.0,21.0,92,0.00,,,0.08,0.000000,,2013-01-28 14:43:00,
2013-01-28 06:53:00,36.0,34.0,-100.00,WSW,240,8.0,21.0,92,0.00,,,0.08,0.000000,,2013-01-28 14:53:00,
2013-01-28 07:03:00,36.0,34.0,-100.00,WSW,240,8.0,21.0,92,0.00,,,0.08,0.000000,,2013-01-28 15:03:00,
2013-01-28 07:12:00,36.0,34.0,-100.00,WSW,240,8.0,21.0,92,0.00,,,0.08,0.000000,,2013-01-28 15:12:00,
2013-01-28 07:33:00,36.0,34.0,-100.00,WSW,257,6.0,16.0,92,0.02,,,0.09,1.000000,,2013-01-28 15:33:00,
2013-01-28 07:43:00,36.0,34.0,-100.00,WSW,257,6.0,16.0,92,0.02,,,0.09,1.000000,,2013-01-28 15:43:00,
2013-01-28 07:53:00,36.0,34.0,-100.00,WSW,257,6.0,16.0,92,0.02,,,0.09,1.000000,,2013-01-28 15:53:00,
2013-01-28 08:03:00,36.0,34.0,-100.00,WSW,257,6.0,16.0,92,0.02,,,0.09,1.000000,,2013-01-28 16:03:00,
2013-01-28 08:12:00,36.0,34.0,-100.00,WSW,257,6.0,16.0,92,0.02,,,0.09,1.000000,,2013-01-28 16:12:00,
2013-01-28 08:33:00,36.0,34.0,-100.00,West,274,6.0,14.0,92,0.04,,,0.13,8.000000,,2013-01-28 16:33:00,
2013-01-28 08:43:00,36.0,34.0,-100.00,West,274,6.0,14.0,92,0.04,,,0.13,8.000000,,2013-01-28 16:43:00,
2013-01-28 08:53:00,36.0,34.0,-100.00,West,274,6.0,14.0,92,0.04,,,0.13,8.000000,,2013-01-28 16:53:00,
2013-01-28 09:01:00,36.0,34.0,-100.00,West,274,6.0,14.0,92,0.04,,,0.13,8.000000,,2013-01-28 17:01:00,
2013-01-28 09:11:00,36.0,34.0,-100.00,West,274,6.0,14.0,92,0.04,,,0.13,8.000000,,2013-01-28 17:11:00,
2013-01-28 09:33:00,35.0,32.0,-100.00,SW,225,6.0,12.0,88,0.00,,,0.13,506.000000,,2013-01-28 17:33:00,
2013-01-28 09:42:00,35.0,32.0,-100.00,SW,225,6.0,12.0,88,0.00,,,0.13,506.000000,,2013-01-28 17:42:00,
2013-01-28 09:52:00,35.0,32.0,-100.00,SW,225,6.0,12.0,88,0.00,,,0.13,506.000000,,2013-01-28 17:52:00,
2013-01-28 10:02:00,35.0,32.0,-100.00,SW,225,6.0,12.0,88,0.00,,,0.13,506.000000,,2013-01-28 18:02:00,
2013-01-28 10:12:00,35.0,32.0,-100.00,SW,225,6.0,12.0,88,0.00,,,0.13,506.000000,,2013-01-28 18:12:00,
2013-01-28 10:33:00,37.0,30.0,-100.00,WSW,256,6.0,15.0,75,0.00,,,-99.99,160.000000,,2013-01-28 18:33:00,
2013-01-28 10:42:00,37.0,30.0,-100.00,WSW,256,6.0,15.0,75,0.00,,,-99.99,160.000000,,2013-01-28 18:42:00,
2013-01-28 10:52:00,37.0,30.0,-100.00,WSW,256,6.0,15.0,75,0.00,,,-99.99,160.000000,,2013-01-28 18:52:00,
2013-01-28 11:02:00,37.0,30.0,-100.00,WSW,256,6.0,15.0,75,0.00,,,-99.99,160.000000,,2013-01-28 19:02:00,
2013-01-28 11:12:00,37.0,30.0,-100.00,WSW,256,6.0,15.0,75,0.00,,,-99.99,160.000000,,2013-01-28 19:12:00,
2013-01-28 11:42:00,39.0,31.0,-100.00,SW,231,6.0,14.0,72,0.00,,,0.13,838.000000,,2013-01-28 19:42:00,
2013-01-28 11:52:00,39.0,31.0,-100.00,SW,231,6.0,14.0,72,0.00,,,0.13,838.000000,,2013-01-28 19:52:00,
2013-01-28 12:02:00,39.0,31.0,-100.00,SW,231,6.0,14.0,72,0.00,,,0.13,838.000000,,2013-01-28 20:02:00,
2013-01-28 12:11:00,39.0,31.0,-100.00,SW,231,6.0,14.0,72,0.00,,,0.13,838.000000,,2013-01-28 20:11:00,
2013-01-28 12:43:00,46.0,32.0,-100.00,WSW,239,9.0,17.0,59,0.00,,,0.13,1171.000000,,2013-01-28 20:43:00,
2013-01-28 12:52:00,46.0,32.0,-100.00,WSW,239,9.0,17.0,59,0.00,,,0.13,1171.000000,,2013-01-28 20:52:00,
2013-01-28 13:02:00,46.0,32.0,-100.00,WSW,239,9.0,17.0,59,0.00,,,0.13,1171.000000,,2013-01-28 21:02:00,
2013-01-28 13:11:00,46.0,32.0,-100.00,WSW,239,9.0,17.0,59,0.00,,,0.13,1171.000000,,2013-01-28 21:11:00,
2013-01-28 13:43:00,46.0,31.0,-100.00,SW,223,8.0,19.0,55,0.00,,,0.13,212.000000,,2013-01-28 21:43:00,
2013-01-28 13:53:00,46.0,31.0,-100.00,SW,223,8.0,19.0,55,0.00,,,0.13,212.000000,,2013-01-28 21:53:00,
2013-01-28 14:01:00,46.0,31.0,-100.00,SW,223,8.0,19.0,55,0.00,,,0.13,212.000000,,2013-01-28 22:01:00,
2013-01-28 14:11:00,46.0,31.0,-100.00,SW,223,8.0,19.0,55,0.00,,,0.13,212.000000,,2013-01-28 22:11:00,
2013-01-28 14:42:00,42.0,21.0,-100.00,SW,226,13.0,19.0,43,0.00,,,0.13,863.000000,,2013-01-28 22:42:00,
2013-01-28 14:52:00,42.0,21.0,-100.00,SW,226,13.0,19.0,43,0.00,,,0.13,863.000000,,2013-01-28 22:52:00,
2013-01-28 15:01:00,42.0,21.0,-100.00,SW,226,13.0,19.0,43,0.00,,,0.13,863.000000,,2013-01-28 23:01:00,
2013-01-28 15:11:00,42.0,21.0,-100.00,SW,226,13.0,19.0,43,0.00,,,0.13,863.000000,,2013-01-28 23:11:00,
2013-01-28 15:33:00,44.0,26.0,-100.00,SW,222,8.0,21.0,48,0.00,,,0.13,650.000000,,2013-01-28 23:33:00,
2013-01-28 15:42:00,44.0,26.0,-100.00,SW,222,8.0,21.0,48,0.00,,,0.13,650.000000,,2013-01-28 23:42:00,
2013-01-28 15:53:00,44.0,26.0,-100.00,SW,222,8.0,21.0,48,0.00,,,0.13,650.000000,,2013-01-28 23:53:00,
2013-01-28 16:02:00,44.0,26.0,-100.00,SW,222,8.0,21.0,48,0.00,,,0.13,650.000000,,2013-01-29 00:02:00,
2013-01-28 16:11:00,44.0,26.0,-100.00,SW,222,8.0,21.0,48,0.00,,,0.13,650.000000,,2013-01-29 00:11:00,
2013-01-28 16:33:00,44.0,27.0,-100.00,SW,230,8.0,17.0,50,0.00,,,0.13,443.000000,,2013-01-29 00:33:00,
2013-01-28 16:42:00,44.0,27.0,-100.00,SW,230,8.0,17.0,50,0.00,,,0.13,443.000000,,2013-01-29 00:42:00,
2013-01-28 16:52:00,44.0,27.0,-100.00,SW,230,8.0,17.0,50,0.00,,,0.13,443.000000,,2013-01-29 00:52:00,
2013-01-28 17:02:00,44.0,27.0,-100.00,SW,230,8.0,17.0,50,0.00,,,0.13,443.000000,,2013-01-29 01:02:00,
2013-01-28 17:11:00,44.0,27.0,-100.00,SW,230,8.0,17.0,50,0.00,,,0.13,443.000000,,2013-01-29 01:11:00,
2013-01-28 17:42:00,41.0,30.0,-100.00,WSW,239,3.0,13.0,65,0.00,,,0.13,71.000000,,2013-01-29 01:42:00,
2013-01-28 17:52:00,41.0,30.0,-100.00,WSW,239,3.0,13.0,65,0.00,,,0.13,71.000000,,2013-01-29 01:52:00,
2013-01-28 18:02:00,41.0,30.0,-100.00,WSW,239,3.0,13.0,65,0.00,,,0.13,71.000000,,2013-01-29 02:02:00,
2013-01-28 18:11:00,41.0,30.0,-100.00,WSW,239,3.0,13.0,65,0.00,,,0.13,71.000000,,2013-01-29 02:11:00,
2013-01-28 18:42:00,38.0,31.0,-100.00,West,268,1.0,10.0,76,0.00,,,0.13,0.000000,,2013-01-29 02:42:00,
2013-01-28 18:53:00,38.0,31.0,-100.00,West,268,1.0,10.0,76,0.00,,,0.13,0.000000,,2013-01-29 02:53:00,
2013-01-28 19:02:00,38.0,31.0,-100.00,West,268,1.0,10.0,76,0.00,,,0.13,0.000000,,2013-01-29 03:02:00,
2013-01-28 19:11:00,38.0,31.0,-100.00,West,268,1.0,10.0,76,0.00,,,0.13,0.000000,,2013-01-29 03:11:00,
2013-01-28 19:32:00,36.0,30.0,-100.00,West,262,1.0,8.0,78,0.00,,,0.13,0.000000,,2013-01-29 03:32:00,
2013-01-28 19:42:00,36.0,30.0,-100.00,West,262,1.0,8.0,78,0.00,,,0.13,0.000000,,2013-01-29 03:42:00,
2013-01-28 19:53:00,36.0,30.0,-100.00,West,262,1.0,8.0,78,0.00,,,0.13,0.000000,,2013-01-29 03:53:00,
2013-01-28 20:01:00,36.0,30.0,-100.00,West,262,1.0,8.0,78,0.00,,,0.13,0.000000,,2013-01-29 04:01:00,
2013-01-28 20:11:00,36.0,30.0,-100.00,West,262,1.0,8.0,78,0.00,,,0.13,0.000000,,2013-01-29 04:11:00,
2013-01-28 20:32:00,36.0,31.0,-100.00,SSW,198,0.0,5.0,83,0.00,,,0.13,0.000000,,2013-01-29 04:32:00,
2013-01-28 20:42:00,36.0,31.0,-100.00,SSW,198,0.0,5.0,83,0.00,,,0.13,0.000000,,2013-01-29 04:42:00,
2013-01-28 20:52:00,36.0,31.0,-100.00,SSW,198,0.0,5.0,83,0.00,,,0.13,0.000000,,2013-01-29 04:52:00,
2013-01-28 21:03:00,36.0,31.0,-100.00,SSW,198,0.0,5.0,83,0.00,,,0.13,0.000000,,2013-01-29 05:03:00,
2013-01-28 21:12:00,36.0,31.0,-100.00,SSW,198,0.0,5.0,83,0.00,,,0.13,0.000000,,2013-01-29 05:12:00,
2013-01-28 21:32:00,34.0,30.0,-100.00,WNW,294,0.0,4.0,85,0.00,,,0.13,0.000000,,2013-01-29 05:32:00,
2013-01-28 21:43:00,34.0,30.0,-100.00,WNW,294,0.0,4.0,85,0.00,,,0.13,0.000000,,2013-01-29 05:43:00,
2013-01-28 21:52:00,34.0,30.0,-100.00,WNW,294,0.0,4.0,85,0.00,,,0.13,0.000000,,2013-01-29 05:52:00,
2013-01-28 22:01:00,34.0,30.0,-100.00,WNW,294,0.0,4.0,85,0.00,,,0.13,0.000000,,2013-01-29 06:01:00,
2013-01-28 22:11:00,34.0,30.0,-100.00,WNW,294,0.0,4.0,85,0.00,,,0.13,0.000000,,2013-01-29 06:11:00,
2013-01-28 22:32:00,32.0,28.0,-100.00,West,261,0.0,3.0,85,0.00,,,0.13,0.000000,,2013-01-29 06:32:00,
2013-01-28 22:42:00,32.0,28.0,-100.00,West,261,0.0,3.0,85,0.00,,,0.13,0.000000,,2013-01-29 06:42:00,
2013-01-28 22:52:00,32.0,28.0,-100.00,West,261,0.0,3.0,85,0.00,,,0.13,0.000000,,2013-01-29 06:52:00,
2013-01-28 23:01:00,32.0,28.0,-100.00,West,261,0.0,3.0,85,0.00,,,0.13,0.000000,,2013-01-29 07:01:00,
2013-01-28 23:11:00,32.0,28.0,-100.00,West,261,0.0,3.0,85,0.00,,,0.13,0.000000,,2013-01-29 07:11:00,
2013-01-28 23:32:00,30.0,27.0,-100.00,East,100,0.0,0.0,90,0.00,,,-99.99,0.000000,,2013-01-29 07:32:00,
2013-01-28 23:42:00,30.0,27.0,-100.00,East,100,0.0,0.0,90,0.00,,,-99.99,0.000000,,2013-01-29 07:42:00,
2013-01-28 23:52:00,30.0,27.0,-100.00,East,100,0.0,0.0,90,0.00,,,-99.99,0.000000,,2013-01-29 07:52:00,